Waarnemingen

Advertentie
Mijn weer
St-Hubert, België (6476): temperatuur & dauwpunt: 06.12.2017 13:00:00 - 12.12.2017 13:00:00 (CET)St-Hubert, België (6476): windsnelheid & windstoten: 06.12.2017 13:00:00 - 12.12.2017 13:00:00 (CET)St-Hubert, België (6476): windrichting: 06.12.2017 13:00:00 - 12.12.2017 13:00:00 (CET)St-Hubert, België (6476): luchtdruk: 06.12.2017 13:00:00 - 12.12.2017 13:00:00 (CET)St-Hubert, België (6476): zicht: 06.12.2017 13:00:00 - 12.12.2017 13:00:00 (CET)
Datum & Tijd tt [°C] td [°C] ff [km/u] ff [kn] fx [km/u] fx [kn] dd ppp [hPa] vv [km]
12.12.2017 13:00:00 -1,3 -2,6 11 6 - - W 1011,1 -
12.12.2017 12:00:00 -1,3 -2,8 14 8 25 14 WZW 1010,3 10
12.12.2017 11:00:00 -1,1 -2,3 14 8 29 16 WZW 1009,3 -
12.12.2017 10:00:00 -0,9 -1,7 11 6 - - WZW 1008,0 0,3
12.12.2017 09:00:00 -0,9 -1,8 11 6 22 12 WZW 1007,0 0,4
12.12.2017 08:00:00 -1,1 -2,1 11 6 18 10 WZW 1005,8 0,3
12.12.2017 07:00:00 -1,1 -2,0 11 6 - - W 1004,3 2,6
12.12.2017 06:00:00 -1,1 -2,3 14 8 32 18 W 1002,7 -
12.12.2017 05:00:00 -1,2 -2,3 14 8 36 19 W 1000,5 3,3
12.12.2017 04:00:00 -1,3 -2,6 22 12 - - W 998,4 -
12.12.2017 03:00:00 -1,7 -2,8 25 14 43 23 WNW 996,4 2,9
12.12.2017 02:00:00 -2,1 -3,3 25 14 54 29 WNW 993,8 0,5
12.12.2017 01:00:00 -2,4 -3,5 29 16 - - WNW 991,6 0,2
12.12.2017 00:00:00 -2,2 -3,1 29 16 40 21 WNW 989,2 0,2
11.12.2017 23:00:00 -1,6 -2,7 22 12 36 19 W 986,6 3,1
11.12.2017 22:00:00 2,1 1,3 22 12 - - ZW 982,7 4,0
11.12.2017 21:00:00 2,5 1,7 18 10 43 23 ZW 980,9 3,8
11.12.2017 20:00:00 3,0 1,6 18 10 43 23 ZW 979,3 45
11.12.2017 19:00:00 3,3 2,0 18 10 - - ZZW 978,0 13
11.12.2017 18:00:00 4,0 3,2 22 12 54 29 ZZW 976,7 -
11.12.2017 17:00:00 4,3 2,9 11 6 36 19 ZZW 976,3 10
11.12.2017 16:00:00 4,9 3,1 14 8 - - - 975,9 30
11.12.2017 15:00:00 5,1 2,6 11 6 40 21 - 975,3 23
11.12.2017 14:00:00 5,8 3,0 14 8 40 21 - 975,4 45
11.12.2017 13:00:00 5,8 3,4 14 8 - - - 975,5 45
11.12.2017 12:00:00 6,1 5,0 11 6 32 18 - 975,9 40
11.12.2017 11:00:00 4,9 4,2 11 6 36 19 Z 976,4 28
11.12.2017 10:00:00 3,2 2,4 18 10 - - ZO 977,1 3,1
11.12.2017 09:00:00 2,2 1,4 25 14 40 21 O 977,5 2,7
11.12.2017 08:00:00 2,1 1,3 18 10 32 18 OZO 978,8 3,0
11.12.2017 07:00:00 2,1 1,3 18 10 - - O 980,0 3,7
11.12.2017 06:00:00 2,3 1,6 18 10 25 14 O 981,3 1,0
11.12.2017 05:00:00 1,7 1,2 11 6 14 8 O 982,9 0,2
11.12.2017 04:00:00 2,2 1,5 7 4 - - ZO 984,2 -
11.12.2017 03:00:00 2,3 1,6 7 4 14 8 - 985,2 2,4
11.12.2017 02:00:00 2,3 1,6 7 4 25 14 WZW 984,0 0,6
11.12.2017 01:00:00 2,7 1,9 11 6 - - ZW 985,0 -
11.12.2017 00:00:00 2,6 1,7 14 8 29 16 ZW 984,2 -
10.12.2017 23:00:00 2,7 1,8 14 8 29 16 WZW 983,6 12
10.12.2017 22:00:00 2,2 1,3 11 6 - - WZW 983,1 7
10.12.2017 21:00:00 2,7 1,6 18 10 43 23 WZW 982,0 12
10.12.2017 20:00:00 2,6 1,6 18 10 54 29 WZW 981,2 2,9
10.12.2017 19:00:00 2,9 1,3 25 14 - - ZW 980,6 6
10.12.2017 18:00:00 2,8 1,1 25 14 54 29 ZW 979,9 3,2
10.12.2017 17:00:00 2,7 1,2 22 12 50 27 ZW 980,4 5
10.12.2017 16:00:00 2,9 1,3 22 12 - - ZW 980,5 12
10.12.2017 15:00:00 2,2 1,0 18 10 43 23 ZW 980,4 13
10.12.2017 14:00:00 0,5 -0,6 18 10 32 18 ZW 981,3 0,4
10.12.2017 13:00:00 -1,5 -2,7 14 8 - - Z 982,0 -
10.12.2017 12:00:00 -2,7 -4,3 22 12 54 29 ZZO 983,2 1,3
10.12.2017 11:00:00 -2,9 -4,1 22 12 43 23 ZZO 985,9 0,8
10.12.2017 10:00:00 -2,9 -4,4 25 14 - - ZO 988,6 0,7
10.12.2017 09:00:00 -2,6 -4,1 18 10 40 21 ZZO 993,0 1,5
10.12.2017 08:00:00 -2,1 -3,4 14 8 36 19 ZZO 995,8 2,4
10.12.2017 07:00:00 -2,0 -3,3 14 8 - - - 998,7 1,8
10.12.2017 06:00:00 -2,0 -2,8 11 6 25 14 Z 1001,5 0,2
10.12.2017 05:00:00 -2,1 -2,8 11 6 32 18 ZZW 1004,0 0,1
10.12.2017 04:00:00 -2,0 -2,8 14 8 - - - 1005,3 0,2
10.12.2017 03:00:00 -2,2 -2,9 11 6 32 18 ZZW 1007,1 0,1
10.12.2017 02:00:00 -2,2 -3,1 11 6 29 16 ZW 1008,3 0,2
10.12.2017 01:00:00 -2,4 -3,2 14 8 - - ZW 1009,9 0,1
10.12.2017 00:00:00 -2,6 -3,5 14 8 32 18 ZW 1011,4 0,8
09.12.2017 23:00:00 -2,4 -3,8 14 8 32 18 ZW 1012,2 5
09.12.2017 22:00:00 -2,2 -3,5 14 8 - - - 1013,0 6
09.12.2017 21:00:00 -2,0 -3,6 14 8 32 18 ZW 1014,0 15
09.12.2017 20:00:00 -2,1 -3,3 14 8 29 16 ZW 1014,5 8
09.12.2017 19:00:00 -2,2 -3,6 14 8 - - ZW 1015,4 13
09.12.2017 18:00:00 -2,4 -3,9 11 6 25 14 ZW 1015,8 19
09.12.2017 17:00:00 -2,6 -4,3 11 6 25 14 ZW 1016,5 22
09.12.2017 16:00:00 -2,6 -4,6 11 6 - - ZW 1016,7 30
09.12.2017 15:00:00 -2,6 -4,8 11 6 29 16 WZW 1016,9 35
09.12.2017 14:00:00 -2,2 -4,5 14 8 25 14 WZW 1017,4 30
09.12.2017 13:00:00 -2,9 -4,5 11 6 - - WZW 1017,8 14
09.12.2017 12:00:00 -3,3 -4,7 14 8 32 18 WZW 1018,2 8
09.12.2017 11:00:00 -3,4 -4,8 18 10 32 18 WZW 1018,3 -
09.12.2017 10:00:00 -3,5 -5,1 14 8 - - WZW 1017,8 -
09.12.2017 09:00:00 -3,6 -5,0 14 8 25 14 WZW 1017,7 -
09.12.2017 08:00:00 -3,6 -4,9 11 6 29 16 WZW 1017,9 -
09.12.2017 07:00:00 -3,6 -4,9 14 8 - - W 1017,7 -
09.12.2017 06:00:00 -3,7 -4,9 11 6 25 14 WZW 1017,3 5
09.12.2017 05:00:00 -3,5 -4,7 11 6 25 14 W 1017,3 -
09.12.2017 04:00:00 -3,3 -4,7 14 8 - - WZW 1017,2 13
09.12.2017 03:00:00 -2,9 -4,6 14 8 25 14 W 1017,0 17
09.12.2017 02:00:00 -2,9 -4,8 11 6 25 14 W 1016,8 26
09.12.2017 01:00:00 -2,9 -4,9 14 8 - - W 1016,7 29
09.12.2017 00:00:00 -2,5 -4,7 18 10 36 19 W 1016,5 35
08.12.2017 23:00:00 -2,2 -4,5 18 10 36 19 W 1016,3 40
08.12.2017 22:00:00 -2,6 -4,9 18 10 - - W 1016,4 1,5
08.12.2017 21:00:00 -2,4 -4,9 14 8 32 18 W 1016,2 45
08.12.2017 20:00:00 -1,9 -4,2 14 8 29 16 W 1015,9 40
08.12.2017 19:00:00 -1,7 -3,7 18 10 - - W 1015,4 29
08.12.2017 18:00:00 -1,6 -3,3 14 8 47 25 W 1015,0 24
08.12.2017 17:00:00 -1,5 -2,6 14 8 43 23 W 1014,6 0,7
08.12.2017 16:00:00 -0,6 -2,6 11 6 - - W 1014,0 23
08.12.2017 15:00:00 -0,6 -2,7 18 10 32 18 W 1013,7 29
08.12.2017 14:00:00 -0,7 -2,5 18 10 29 16 W 1013,4 8
08.12.2017 13:00:00 -0,5 -2,8 14 8 - - W 1013,3 35
08.12.2017 12:00:00 -0,5 -2,2 18 10 29 16 W 1013,4 28
08.12.2017 11:00:00 -0,7 -2,1 14 8 25 14 W 1013,5 30
08.12.2017 10:00:00 -1,0 -2,5 14 8 - - WZW 1012,9 45
08.12.2017 09:00:00 -0,9 -2,2 11 6 32 18 WZW 1012,8 9
08.12.2017 08:00:00 -0,5 -1,8 11 6 29 16 WZW 1012,6 10
08.12.2017 07:00:00 0,2 -0,9 11 6 - - W 1012,6 -
08.12.2017 06:00:00 0,7 -0,5 11 6 32 18 W 1012,6 12
08.12.2017 05:00:00 1,0 -0,2 14 8 32 18 W 1012,7 -
08.12.2017 04:00:00 1,4 0,0 18 10 - - W 1012,7 -
08.12.2017 03:00:00 1,9 0,9 14 8 29 16 W 1012,4 -
08.12.2017 02:00:00 2,2 1,3 18 10 40 21 W 1012,0 5
08.12.2017 01:00:00 2,5 1,7 22 12 - - WNW 1011,7 4,2
08.12.2017 00:00:00 2,9 1,7 25 14 47 25 WNW 1011,0 7
07.12.2017 23:00:00 4,0 3,4 14 8 32 18 W 1010,0 0,1
07.12.2017 22:00:00 3,7 3,1 14 8 - - ZW 1009,9 2,3
07.12.2017 21:00:00 3,5 2,7 22 12 54 29 ZW 1009,9 2,3
07.12.2017 20:00:00 3,4 2,7 22 12 47 25 ZW 1010,7 5
07.12.2017 19:00:00 3,0 2,3 22 12 - - ZZW 1011,5 6
07.12.2017 18:00:00 2,4 1,6 18 10 43 23 ZZW 1012,8 4,0
07.12.2017 17:00:00 1,7 0,9 22 12 47 25 ZW 1014,1 2,6
07.12.2017 16:00:00 0,7 0,0 14 8 - - ZZW 1015,3 0,1
07.12.2017 15:00:00 -0,2 -0,9 14 8 40 21 - 1016,8 0,1
07.12.2017 14:00:00 -0,2 -1,0 14 8 36 19 - 1017,7 0,1
07.12.2017 13:00:00 -0,7 -1,5 14 8 - - ZZW 1019,5 0,1
07.12.2017 12:00:00 -1,2 -2,0 11 6 36 19 - 1021,2 0,1
07.12.2017 11:00:00 -1,1 -1,9 11 6 36 19 ZZW 1021,7 0,1
07.12.2017 10:00:00 -1,3 -2,1 14 8 - - Z 1021,9 0,2
07.12.2017 09:00:00 -1,7 -2,6 18 10 32 18 ZW 1023,1 0,3
07.12.2017 08:00:00 -1,9 -2,9 18 10 40 21 ZW 1023,5 0,2
07.12.2017 07:00:00 -1,8 -2,7 11 6 - - - 1023,5 0,2
07.12.2017 06:00:00 -2,0 -2,9 18 10 47 25 ZW 1024,3 0,2
07.12.2017 05:00:00 -1,9 -2,7 18 10 36 19 ZW 1024,9 0,1
07.12.2017 04:00:00 -1,7 -2,5 14 8 - - ZZW 1025,5 0,1
07.12.2017 03:00:00 -0,5 -1,4 14 8 32 18 ZZW 1026,1 0,6
07.12.2017 02:00:00 0,1 -1,0 14 8 36 19 ZZW 1026,3 3,6
07.12.2017 01:00:00 0,5 -1,1 14 8 - - ZW 1027,3 12
07.12.2017 00:00:00 0,5 -0,8 11 6 25 14 ZZW 1028,0 -
06.12.2017 23:00:00 0,8 -0,3 11 6 22 12 ZZW 1028,9 4,6
06.12.2017 22:00:00 1,1 0,1 7 4 - - - 1029,7 3,3
06.12.2017 21:00:00 1,4 0,6 7 4 18 10 - 1030,3 3,3
06.12.2017 20:00:00 1,6 0,9 7 4 18 10 - 1030,8 3,2
06.12.2017 19:00:00 1,8 0,9 7 4 - - - 1031,4 3,0
06.12.2017 18:00:00 2,0 1,0 7 4 14 8 - 1031,6 4,2
06.12.2017 17:00:00 2,3 1,3 4 2 14 8 ZW 1032,1 5
06.12.2017 16:00:00 2,7 1,6 4 2 - - ZZW 1032,0 5
06.12.2017 15:00:00 3,0 1,7 7 4 14 8 ZW 1032,4 5
06.12.2017 14:00:00 3,1 1,7 4 2 11 6 ZW 1032,8 -
06.12.2017 13:00:00 3,1 1,9 4 2 - - ZW 1033,4 4,8

tt = temperatuur
td = dauwpunt
ff = windsnelheid
fx = windstoten
dd = windrichting
ppp = luchtdruk
vv = zicht

Weerstations in de omgeving